TimeEDT,TemperatureF,Dew PointF,Humidity,Sea Level PressureIn,VisibilityMPH,Wind Direction,Wind SpeedMPH,Gust SpeedMPH,PrecipitationIn,Events,Conditions,WindDirDegrees,DateUTC
12:53 AM,51.1,39.9,66,29.69,10.0,South,12.7,-,N/A,,Overcast,170,2013-03-11 04:53:00
1:53 AM,51.1,39.0,63,29.68,10.0,South,8.1,-,0.00,,Overcast,180,2013-03-11 05:53:00
2:53 AM,50.0,39.0,66,29.67,10.0,South,6.9,-,0.00,,Overcast,180,2013-03-11 06:53:00
3:50 AM,48.2,42.8,82,29.65,7.0,SSW,9.2,-,0.01,Rain,Light Rain,200,2013-03-11 07:50:00
3:53 AM,48.9,43.0,80,29.66,8.0,SSW,9.2,-,0.01,Rain,Light Rain,200,2013-03-11 07:53:00
4:22 AM,48.2,46.4,93,29.64,4.0,South,9.2,-,0.01,Rain,Light Rain,190,2013-03-11 08:22:00
4:53 AM,48.0,46.0,93,29.65,5.0,South,8.1,-,0.02,,Overcast,190,2013-03-11 08:53:00
5:03 AM,48.2,46.4,93,29.63,3.0,South,9.2,-,N/A,,Light Drizzle,180,2013-03-11 09:03:00
5:53 AM,48.0,46.0,93,29.63,4.0,South,6.9,-,0.01,,Light Drizzle,170,2013-03-11 09:53:00
6:53 AM,46.9,45.0,93,29.64,4.0,SSE,9.2,-,0.00,,Overcast,160,2013-03-11 10:53:00
7:22 AM,46.4,46.4,100,29.62,4.0,South,5.8,-,N/A,,Overcast,190,2013-03-11 11:22:00
7:40 AM,46.4,44.6,93,29.62,2.5,South,5.8,-,N/A,,Overcast,180,2013-03-11 11:40:00
7:53 AM,46.0,45.0,96,29.65,2.0,South,6.9,-,N/A,,Overcast,180,2013-03-11 11:53:00
8:26 AM,46.4,46.4,100,29.63,1.5,South,6.9,-,N/A,,Overcast,190,2013-03-11 12:26:00
8:53 AM,46.9,45.0,93,29.64,2.5,South,5.8,-,N/A,,Overcast,190,2013-03-11 12:53:00
9:05 AM,46.4,46.4,100,29.62,1.8,South,4.6,-,N/A,,Overcast,180,2013-03-11 13:05:00
9:42 AM,46.4,44.6,93,29.63,0.8,SSE,9.2,-,N/A,,Overcast,150,2013-03-11 13:42:00
9:53 AM,48.0,46.9,96,29.63,1.5,South,5.8,-,N/A,,Overcast,170,2013-03-11 13:53:00
10:07 AM,48.2,48.2,100,29.61,2.5,South,5.8,-,N/A,,Overcast,170,2013-03-11 14:07:00
10:16 AM,50.0,48.2,94,29.61,4.0,SSE,9.2,-,N/A,,Overcast,160,2013-03-11 14:16:00
10:53 AM,51.1,48.0,89,29.61,7.0,SSE,10.4,-,N/A,,Mostly Cloudy,160,2013-03-11 14:53:00
11:48 AM,50.0,46.4,87,29.58,10.0,SSE,10.4,-,0.01,,Overcast,160,2013-03-11 15:48:00
11:53 AM,50.0,46.9,89,29.58,10.0,South,8.1,-,0.01,,Overcast,170,2013-03-11 15:53:00
12:30 PM,51.8,46.4,82,29.55,9.0,SSE,9.2,-,N/A,,Overcast,160,2013-03-11 16:30:00
12:53 PM,51.1,46.9,86,29.55,10.0,South,12.7,-,N/A,,Overcast,170,2013-03-11 16:53:00
1:53 PM,51.1,46.9,86,29.52,10.0,SSE,12.7,-,N/A,,Overcast,150,2013-03-11 17:53:00
2:23 PM,51.8,48.2,88,29.50,6.0,South,9.2,-,0.01,Rain,Light Rain,180,2013-03-11 18:23:00
2:42 PM,48.2,44.6,87,29.50,10.0,West,27.6,34.5,0.02,Rain,Light Rain,260,2013-03-11 18:42:00
2:53 PM,46.9,43.0,86,29.50,10.0,West,20.7,29.9,0.02,Rain,Light Rain,260,2013-03-11 18:53:00
3:19 PM,46.4,42.8,87,29.49,10.0,WSW,18.4,-,0.00,,Overcast,250,2013-03-11 19:19:00
3:44 PM,46.4,41.0,81,29.49,10.0,WSW,16.1,-,0.00,,Overcast,250,2013-03-11 19:44:00
3:53 PM,46.0,42.1,86,29.49,10.0,WSW,12.7,-,0.00,,Overcast,250,2013-03-11 19:53:00
4:26 PM,44.6,39.2,81,29.49,10.0,WSW,16.1,-,N/A,,Overcast,250,2013-03-11 20:26:00
4:33 PM,44.6,39.2,81,29.49,10.0,WSW,23.0,27.6,N/A,,Overcast,250,2013-03-11 20:33:00
4:44 PM,42.8,39.2,87,29.50,10.0,WSW,19.6,27.6,N/A,,Overcast,240,2013-03-11 20:44:00
4:53 PM,43.0,39.0,86,29.52,10.0,SW,17.3,26.5,N/A,,Overcast,230,2013-03-11 20:53:00
5:04 PM,42.8,37.4,81,29.51,10.0,WSW,19.6,27.6,N/A,,Overcast,240,2013-03-11 21:04:00
5:30 PM,42.8,37.4,81,29.51,10.0,WSW,18.4,26.5,N/A,,Overcast,250,2013-03-11 21:30:00
5:53 PM,41.0,36.0,82,29.54,10.0,WSW,19.6,31.1,N/A,,Overcast,240,2013-03-11 21:53:00
6:31 PM,39.2,35.6,87,29.56,6.0,SW,24.2,31.1,0.00,Rain,Light Rain,230,2013-03-11 22:31:00
6:53 PM,37.4,33.8,87,29.56,7.0,SW,20.7,27.6,N/A,Rain,Light Rain,230,2013-03-11 22:53:00
7:24 PM,37.4,33.8,87,29.56,10.0,WSW,16.1,-,0.00,,Overcast,240,2013-03-11 23:24:00
7:53 PM,37.0,33.1,86,29.58,10.0,SW,19.6,26.5,0.00,,Light Drizzle,230,2013-03-11 23:53:00
8:53 PM,37.0,33.1,86,29.59,10.0,SW,19.6,28.8,0.00,,Overcast,230,2013-03-12 00:53:00
9:15 PM,35.6,33.8,93,29.58,10.0,WSW,21.9,31.1,N/A,,Overcast,240,2013-03-12 01:15:00
9:53 PM,36.0,33.1,89,29.62,9.0,WSW,20.7,27.6,0.00,,Light Drizzle,240,2013-03-12 01:53:00
10:53 PM,35.1,33.1,92,29.65,6.0,WSW,19.6,-,0.00,Rain-Snow,Light Rain,250,2013-03-12 02:53:00
11:53 PM,35.1,33.1,92,29.67,6.0,WSW,15.0,-,0.01,Rain-Snow,Light Snow,250,2013-03-12 03:53:00